Wind_Speed
30 29 29 28 26 25 23 23 23 22 20 19 17 16 13 11 11 10 10 9 9 9 9 8 8 8 7 7 6 5 5 4 4 4 3 3 3 3 2 2 2 2 2
33 32 30 30 29 28 27 26 26 26 25 23 21 20 18 16 14 13 12 12 11 10 10 9 9 8 8 7 6 6 5 4 3 3 2 2 1 1 1 2 2 3 3
39 37 35 33 32 31 30 29 27 27 27 26 25 24 23 21 19 17 15 14 14 13 12 11 10 10 9 8 7 6 5 4 3 2 2 1 1 1 2 3 3 4 5
42 42 40 38 36 34 32 31 29 28 28 29 28 28 28 26 24 22 19 17 16 15 15 14 13 12 11 10 9 8 7 6 5 4 4 4 4 4 4 5 5 6 6
43 43 42 41 40 38 36 33 31 29 30 31 31 31 31 30 28 26 24 21 19 18 17 16 15 14 13 12 11 10 9 8 8 7 7 7 7 7 7 7 8 8 9
42 42 42 42 42 40 38 36 34 32 31 31 31 33 33 33 32 30 28 26 24 22 20 19 18 17 16 15 14 13 12 11 11 10 10 10 9 10 10 10 11 11 11
41 42 42 42 42 41 40 38 37 34 32 29 30 33 35 36 35 33 32 30 28 26 24 22 21 20 19 18 17 16 15 14 14 13 13 12 12 12 13 13 13 14 14
39 40 41 42 42 42 42 41 39 37 35 33 31 32 34 36 37 35 34 33 31 29 28 26 24 23 22 21 20 19 18 17 16 16 15 15 15 15 15 15 16 16 17
36 38 40 42 42 42 42 42 42 40 38 36 33 33 33 34 36 37 36 35 34 32 31 29 27 26 25 24 23 22 21 20 19 19 18 18 17 17 17 17 17 18 18
31 34 37 40 41 42 42 41 41 41 41 39 36 34 33 32 34 36 38 37 36 35 34 32 31 29 28 27 26 25 24 23 22 21 21 20 20 19 19 19 19 19 20
28 30 33 36 39 41 41 41 41 41 42 41 39 37 35 34 33 36 37 37 37 37 36 35 34 32 31 30 29 28 27 26 25 24 23 23 22 22 21 21 21 21 21
26 28 30 32 35 38 40 41 41 42 42 42 41 40 39 38 36 36 36 37 38 38 38 36 35 34 33 33 31 30 29 28 27 25 25 24 23 23 23 22 22 22 22
21 23 25 28 31 34 36 39 41 41 43 43 42 42 42 41 39 38 38 37 37 38 37 37 36 36 36 34 33 32 31 29 28 27 26 26 25 25 24 23 23 23 23
16 18 21 24 26 29 32 35 38 41 43 44 43 43 43 42 41 40 39 38 37 38 38 38 38 37 37 35 33 33 32 31 29 29 28 27 26 25 25 25 25 24 25
12 15 17 20 23 26 29 32 36 39 42 44 44 43 45 44 44 42 41 40 39 39 39 39 39 39 38 36 35 34 33 31 31 30 30 29 28 27 27 27 26 26 26
10 12 14 17 20 22 25 29 33 36 39 42 43 43 43 44 45 45 44 43 41 41 40 39 38 39 38 37 37 35 34 32 32 31 30 30 29 29 28 28 28 28 27
10 10 12 14 17 19 22 25 29 33 36 39 41 42 42 42 44 44 45 44 42 43 41 40 40 40 40 38 37 36 36 35 34 33 32 31 30 30 30 29 27 27 27
12 11 10 11 13 16 18 22 26 29 32 36 39 41 41 41 42 44 43 42 42 43 42 41 41 41 40 39 38 37 36 36 35 33 33 32 31 30 29 28 26 26 27
13 12 11 11 11 13 15 18 21 26 29 31 34 36 38 40 40 41 42 42 41 42 41 40 40 40 41 40 39 38 38 37 36 35 34 33 31 29 28 27 27 27 27
16 14 13 12 11 11 12 14 17 20 24 28 29 31 33 37 38 38 39 40 40 40 40 40 40 39 39 40 40 39 38 37 35 33 33 32 31 29 28 27 26 26 26
18 17 15 14 13 12 12 13 15 18 21 25 27 28 30 31 33 35 36 37 39 40 40 40 40 40 39 39 38 37 36 34 33 32 31 30 29 27 27 27 26 25 24
20 19 17 15 14 13 12 12 14 16 19 21 24 25 27 28 28 30 32 33 35 37 38 38 38 37 36 36 37 36 34 33 32 31 30 28 27 26 26 26 25 24 23
22 21 19 17 15 14 13 12 11 13 16 18 20 22 25 27 27 29 29 29 31 33 33 34 35 35 35 35 34 33 33 31 30 28 28 28 27 26 26 25 24 23 22
24 23 22 20 17 15 12 11 10 10 13 15 18 19 21 24 25 25 26 26 27 28 28 30 32 32 31 31 31 31 30 28 27 27 27 26 26 25 25 24 22 22 21
25 25 23 22 19 16 13 11 8 7 9 12 15 17 19 21 22 22 22 22 23 24 25 26 25 25 25 25 25 25 26 26 26 25 25 25 25 24 23 22 21 20 19
27 26 25 23 21 18 14 11 8 6 6 8 11 14 16 18 19 19 20 21 21 22 23 23 22 22 23 23 23 23 24 25 25 24 23 23 22 21 20 20 19 19 18
Wind_Direction
256 255 253 252 249 250 250 249 247 246 245 245 244 244 243 239 232 223 216 210 206 202 200 198 198 196 193 190 185 180 172 165 161 152 142 129 108 91 81 60 37 20 5
255 254 254 253 252 251 252 253 249 248 243 241 242 242 241 239 235 227 219 214 211 209 210 209 207 206 205 204 198 190 183 177 174 169 160 150 127 87 43 21 9 356 345
252 253 252 252 251 250 250 253 253 252 246 241 240 240 239 237 236 232 225 220 219 218 218 218 218 218 217 216 214 210 206 207 208 211 217 228 254 290 317 326 328 329 329
251 251 251 251 251 250 250 251 251 251 247 242 241 239 238 237 236 234 230 226 224 223 222 222 223 224 222 222 222 223 225 229 234 242 253 264 273 281 291 300 307 311 313
249 250 250 250 251 250 249 251 251 250 250 245 241 238 236 236 235 234 232 230 228 227 226 225 226 227 227 228 229 230 235 241 244 251 260 268 274 279 283 288 291 295 299
246 247 247 247 248 249 248 248 249 249 249 247 241 238 235 236 236 235 234 233 231 230 230 230 230 231 231 233 234 236 240 247 251 256 262 268 273 278 281 285 288 292 295
246 245 245 246 246 246 246 245 245 246 246 245 243 239 237 235 234 235 235 235 234 233 233 234 234 233 234 236 238 240 244 249 253 258 264 269 273 277 281 284 287 290 292
246 244 243 243 244 244 244 244 243 243 243 245 244 240 238 236 234 234 235 235 235 235 235 236 236 237 238 239 241 244 246 249 253 259 264 268 272 276 280 283 285 287 288
247 245 243 242 243 243 243 243 242 241 239 241 242 240 237 235 233 232 233 234 235 235 236 237 239 240 240 241 243 244 246 250 254 258 263 267 271 275 279 282 285 286 287
248 246 243 241 241 241 241 241 240 238 237 237 238 239 236 236 232 231 232 234 234 234 235 238 240 241 242 243 243 245 247 251 254 258 262 265 268 272 276 279 282 284 286
249 247 245 243 241 241 239 239 238 236 235 234 234 235 234 234 233 231 231 232 233 234 235 237 239 240 242 243 244 246 248 252 255 258 260 263 266 270 274 277 279 282 285
252 248 246 244 242 241 240 239 237 235 233 233 232 232 232 233 234 231 230 233 234 234 235 236 237 239 241 242 244 247 249 251 254 257 259 261 265 269 272 274 277 281 284
258 252 248 245 243 242 240 239 237 235 233 231 230 230 230 231 231 231 231 233 233 233 234 236 237 239 241 243 245 247 248 250 253 256 259 261 264 266 269 272 276 279 283
265 257 252 248 245 243 242 239 236 234 232 231 230 230 229 230 230 231 231 232 233 233 234 234 236 238 239 241 243 246 248 249 250 254 258 259 261 264 267 270 275 278 283
274 265 259 253 248 246 245 241 236 234 232 231 230 231 231 230 230 230 230 232 232 233 234 234 235 236 236 238 240 243 246 247 249 252 255 257 261 263 266 270 274 277 281
296 280 269 260 253 250 248 243 238 235 233 231 232 232 232 232 231 230 231 231 232 232 232 232 234 235 235 236 238 240 242 244 247 250 252 256 260 264 268 270 274 278 281
321 302 287 272 261 255 251 245 239 236 234 232 232 232 232 232 232 230 230 230 231 231 231 232 233 234 235 236 236 238 239 243 245 248 250 255 259 263 265 269 274 278 281
340 322 305 290 273 260 254 247 241 237 235 234 233 233 234 232 232 232 232 230 230 229 229 231 232 234 234 234 235 236 238 241 243 247 249 254 257 260 263 269 273 278 281
350 339 326 315 296 276 261 253 245 240 237 236 236 236 235 232 232 231 233 233 231 228 229 230 231 232 233 233 234 235 236 239 242 244 247 251 255 258 264 266 272 276 278
354 346 335 323 308 291 275 263 251 242 237 235 234 236 235 236 235 234 233 232 231 229 227 228 230 230 230 231 232 233 234 236 239 243 246 250 255 258 261 264 269 273 276
356 350 343 333 321 306 289 273 259 248 240 237 234 234 234 234 235 234 232 231 231 229 227 229 230 228 228 229 230 230 233 235 237 240 245 250 254 256 258 262 266 270 276
359 354 349 341 331 318 302 284 267 255 246 241 238 235 232 230 231 229 227 227 227 227 226 227 228 228 228 228 228 230 232 233 236 241 245 249 252 254 257 260 263 268 273
2 359 354 347 337 326 311 295 278 259 249 243 240 236 235 233 231 226 224 224 224 224 223 222 223 224 226 227 229 232 233 233 237 242 245 249 252 254 256 260 264 269 274
4 1 357 353 346 338 326 309 289 267 251 243 238 235 233 232 229 228 225 223 220 220 219 219 219 220 222 224 227 230 231 234 237 241 243 246 248 251 255 260 263 266 269
7 4 2 360 355 349 340 327 306 278 255 243 237 233 230 229 224 222 221 221 220 220 218 217 217 219 220 222 225 227 229 232 235 238 239 242 246 249 253 256 258 261 263
9 7 6 5 3 0 356 346 333 304 267 245 237 231 227 228 223 219 219 219 217 218 218 218 218 218 217 220 224 226 228 230 232 235 238 240 242 245 248 249 251 254 258
Height
5867 5868 5870 5872 5874 5876 5878 5880 5882 5884 5886 5888 5889 5891 5892 5894 5895 5896 5897 5898 5899 5901 5902 5904 5905 5907 5909 5910 5911 5912 5914 5915 5916 5917 5917 5918 5919 5919 5920 5920 5921 5921 5921
5859 5861 5863 5866 5868 5870 5872 5874 5876 5878 5880 5883 5885 5887 5889 5891 5892 5894 5895 5897 5898 5900 5901 5903 5904 5906 5908 5909 5910 5912 5913 5914 5915 5916 5917 5917 5918 5919 5919 5920 5920 5920 5920
5850 5853 5856 5858 5860 5862 5865 5867 5870 5872 5874 5877 5880 5883 5885 5887 5889 5891 5892 5894 5896 5898 5899 5901 5903 5905 5906 5908 5909 5911 5912 5913 5914 5915 5916 5916 5917 5918 5918 5919 5919 5919 5919
5841 5844 5847 5850 5852 5855 5857 5860 5863 5865 5868 5871 5874 5877 5880 5882 5885 5887 5889 5891 5893 5895 5897 5899 5901 5903 5904 5906 5908 5909 5910 5912 5913 5914 5914 5915 5916 5916 5917 5917 5917 5917 5917
5831 5834 5838 5840 5843 5846 5849 5852 5856 5858 5861 5864 5867 5870 5873 5877 5879 5882 5885 5887 5889 5892 5894 5896 5898 5900 5902 5904 5905 5907 5908 5910 5911 5912 5912 5913 5914 5914 5915 5915 5915 5915 5915
5821 5824 5827 5830 5834 5837 5841 5844 5848 5851 5854 5856 5859 5863 5866 5870 5873 5877 5880 5883 5885 5888 5890 5892 5895 5897 5899 5901 5902 5904 5906 5907 5908 5909 5910 5911 5911 5912 5912 5912 5913 5913 5912
5811 5814 5817 5820 5824 5828 5832 5835 5839 5842 5846 5848 5852 5855 5859 5862 5866 5870 5874 5877 5880 5883 5885 5888 5890 5893 5895 5897 5899 5901 5902 5904 5905 5906 5907 5908 5909 5909 5909 5909 5909 5909 5909
5800 5804 5807 5810 5814 5818 5822 5826 5830 5834 5837 5841 5844 5847 5850 5855 5859 5863 5867 5871 5874 5877 5880 5883 5886 5888 5890 5893 5895 5897 5898 5900 5902 5903 5904 5905 5905 5906 5906 5906 5906 5906 5905
5790 5793 5797 5800 5804 5807 5812 5815 5820 5824 5828 5832 5836 5839 5843 5847 5850 5855 5859 5863 5867 5871 5874 5877 5880 5883 5885 5888 5890 5892 5894 5896 5897 5899 5900 5901 5901 5902 5902 5902 5902 5902 5901
5781 5783 5786 5790 5793 5797 5801 5805 5809 5814 5819 5823 5827 5831 5835 5839 5842 5847 5851 5855 5859 5863 5867 5871 5874 5877 5879 5882 5884 5887 5889 5891 5893 5894 5895 5896 5897 5897 5898 5898 5898 5897 5897
5772 5774 5777 5780 5783 5787 5791 5795 5799 5804 5809 5814 5818 5822 5826 5830 5834 5839 5843 5847 5852 5856 5860 5863 5867 5870 5873 5876 5878 5881 5884 5886 5887 5889 5890 5891 5892 5893 5893 5893 5893 5892 5892
5764 5766 5768 5771 5773 5777 5781 5785 5789 5794 5799 5803 5808 5813 5817 5822 5827 5831 5835 5839 5843 5848 5851 5855 5859 5863 5866 5869 5872 5875 5878 5880 5882 5883 5884 5886 5886 5887 5888 5888 5888 5887 5887
5758 5759 5761 5763 5765 5768 5771 5775 5779 5784 5788 5793 5798 5803 5808 5813 5817 5822 5826 5830 5834 5839 5843 5848 5852 5855 5859 5862 5865 5868 5871 5873 5875 5877 5879 5880 5881 5881 5882 5882 5882 5882 5881
5752 5753 5754 5756 5757 5760 5762 5765 5769 5774 5779 5783 5788 5793 5798 5803 5808 5812 5817 5822 5826 5831 5835 5839 5843 5848 5851 5855 5858 5861 5864 5867 5869 5871 5872 5873 5875 5876 5876 5876 5876 5876 5875
5748 5748 5749 5749 5750 5752 5754 5756 5760 5764 5769 5773 5778 5783 5788 5793 5798 5803 5808 5813 5818 5822 5827 5831 5835 5839 5843 5847 5851 5854 5857 5860 5862 5864 5865 5867 5868 5869 5870 5870 5870 5870 5869
5746 5745 5744 5744 5744 5745 5747 5749 5751 5755 5759 5764 5769 5774 5779 5784 5788 5793 5798 5803 5808 5814 5818 5823 5827 5831 5835 5839 5842 5846 5850 5853 5855 5857 5859 5860 5861 5863 5863 5864 5864 5864 5863
5743 5742 5741 5740 5739 5740 5741 5742 5744 5747 5751 5755 5760 5764 5769 5774 5779 5784 5788 5793 5798 5804 5809 5814 5818 5822 5827 5831 5835 5838 5842 5845 5848 5850 5852 5853 5855 5856 5857 5857 5857 5857 5857
5742 5739 5738 5736 5735 5735 5735 5736 5737 5740 5743 5747 5751 5755 5759 5765 5769 5774 5778 5783 5789 5794 5799 5805 5809 5814 5818 5822 5826 5830 5834 5837 5840 5842 5844 5846 5847 5849 5850 5850 5850 5850 5850
5741 5738 5735 5733 5732 5731 5731 5731 5732 5734 5736 5740 5743 5747 5751 5755 5759 5764 5769 5774 5779 5784 5790 5796 5801 5805 5809 5814 5818 5822 5826 5829 5832 5834 5836 5838 5840 5841 5842 5843 5844 5844 5844
5740 5737 5734 5731 5729 5728 5727 5726 5727 5728 5730 5732 5736 5739 5742 5746 5751 5755 5760 5765 5770 5775 5781 5786 5791 5796 5800 5805 5809 5814 5818 5821 5824 5826 5829 5831 5833 5834 5836 5837 5837 5838 5838
5739 5735 5732 5729 5726 5724 5722 5722 5722 5722 5724 5726 5729 5732 5735 5739 5743 5747 5752 5756 5761 5767 5772 5778 5783 5787 5792 5797 5802 5806 5810 5813 5816 5819 5822 5824 5826 5828 5829 5830 5831 5831 5831
5739 5734 5730 5726 5723 5720 5718 5717 5717 5717 5718 5720 5723 5725 5728 5732 5735 5739 5744 5748 5754 5759 5764 5770 5775 5779 5784 5789 5794 5798 5802 5806 5809 5812 5815 5817 5819 5821 5822 5823 5824 5825 5825
5738 5733 5729 5724 5721 5717 5714 5713 5712 5712 5713 5715 5717 5719 5722 5725 5729 5732 5737 5741 5746 5751 5757 5762 5768 5772 5777 5782 5787 5791 5795 5798 5802 5805 5808 5810 5813 5814 5816 5817 5818 5819 5819
5738 5733 5727 5722 5718 5714 5711 5709 5707 5707 5708 5710 5711 5714 5716 5719 5723 5727 5731 5735 5739 5745 5750 5756 5761 5765 5770 5775 5780 5784 5788 5791 5794 5798 5802 5804 5806 5808 5810 5811 5812 5813 5814
5738 5732 5727 5721 5716 5712 5708 5706 5704 5704 5704 5705 5707 5709 5711 5714 5718 5721 5725 5730 5734 5739 5744 5749 5754 5759 5764 5768 5773 5778 5781 5785 5788 5792 5795 5798 5800 5802 5804 5805 5807 5808 5809
5739 5733 5727 5721 5716 5711 5707 5704 5702 5701 5701 5702 5703 5705 5707 5710 5713 5717 5721 5726 5730 5735 5740 5745 5750 5754 5759 5763 5768 5772 5776 5780 5783 5786 5789 5792 5794 5797 5799 5800 5802 5803 5804